#timestamp,LO_Frequency,Hit,StdDev 
1513904415.3,286046994.1,N
1513904435.1,286046992.0,N
1513904455.8,286046990.6,N
1513904475.7,286046989.3,Y
1513904495.5,286046992.4,P
1513904515.3,286046993.3,P
1513904535.2,286046994.4,P
1513904555.9,286046994.5,Y
1513904575.7,286047000.2,P
1513904595.6,286046999.1,N
1513904615.4,286047001.2,N
1513904635.2,286047002.3,N
1513904655.1,286047002.6,N
1513904656.0,286047002.6,N
1513904675.8,286046999.9,N
1513904695.6,286046999.1,N
1513904715.5,286046996.7,N
1513904735.3,286046997.6,N
1513904755.1,286046992.9,N
1513904775.9,286046988.7,Y
1513904795.7,286046991.4,P
1513904815.5,286046991.6,N
1513904835.4,286046985.3,P
1513904855.2,286046983.0,Y
1513904875.0,286046990.0,P
1513904875.9,286046990.0,P
1513904895.8,286046987.8,P
1513904915.6,286046986.0,Y
1513904935.4,286046998.0,P
1513904955.3,286046997.4,N
1513904975.1,286046993.4,N
1513904995.8,286046996.2,N
1513905015.7,286046993.1,N
1513905035.5,286046993.0,N
1513905055.3,286046992.1,N
1513905075.2,286046996.3,N
1513905095.9,286046991.8,Y
1513905115.7,286046994.9,P
1513905135.6,286046995.5,P
1513905155.4,286046997.1,P
1513905175.2,286046999.4,N
1513905195.0,286046996.2,N
1513905196.0,286046996.2,N
1513905215.8,286046997.9,N
1513905235.6,286047002.7,N
1513905255.4,286047003.9,N
1513905275.3,286047002.0,N
1513905295.1,286047000.3,N
1513905315.8,286046997.2,N
1513905335.7,286046997.1,N
1513905355.5,286046994.3,N
1513905375.3,286046990.6,Y
1513905395.2,286046993.8,P
1513905415.9,286046995.5,N
1513905435.7,286046993.9,P
1513905455.6,286046993.8,Y
1513905475.4,286047005.9,P
1513905495.2,286047012.3,N
1513905515.1,286047009.7,N
1513905516.0,286047009.7,N
1513905535.8,286047015.6,N
1513905555.6,286047014.7,N
1513905575.5,286047015.2,N
1513905595.3,286047014.6,N
1513905615.1,286047022.0,Y
1513905635.9,286047015.1,P
1513905655.7,286047009.9,P
1513905675.5,286047007.4,P
1513905695.4,286047003.3,N
1513905715.2,286047005.8,N
1513905735.0,286047004.8,N
1513905735.9,286047004.8,N
1513905755.8,286047001.8,N
1513905775.6,286047003.9,N
1513905795.4,286047005.3,N
1513905815.2,286047006.9,N
1513905835.1,286047005.2,N
1513905836.0,286047005.2,N
1513905855.8,286047007.5,N
1513905875.6,286047009.2,N
1513905895.5,286047010.1,Y
1513905915.3,286047005.7,P
1513905935.2,286047008.2,P
1513905955.9,286047003.0,N
1513905975.7,286047006.0,Y
1513905995.6,286047000.1,P
1513906015.4,286047007.2,N
1513906035.2,286047005.4,N
1513906055.1,286047003.6,N
1513906056.0,286047003.6,N
1513906075.8,286047004.4,N
1513906095.6,286046996.6,N
1513906115.4,286046997.1,N
1513906135.3,286046997.3,N
1513906155.1,286046998.5,N
1513906175.8,286047001.7,N
1513906195.7,286047002.8,N
1513906215.5,286046998.5,N
1513906235.3,286047003.9,N
1513906255.2,286047004.9,N
1513906275.9,286047008.0,N
1513906295.7,286047004.6,N
1513906315.6,286047010.5,N
1513906335.4,286047008.3,N
1513906355.2,286047009.2,N
1513906375.0,286047008.3,N
1513906376.0,286047008.3,N
1513906395.8,286047009.1,N
1513906415.6,286047007.9,N
1513906435.4,286047011.5,N
1513906455.3,286047012.9,N
1513906475.1,286047014.6,Y
1513906495.8,286047012.8,P
1513906515.7,286047014.9,P
1513906535.5,286047020.7,P
1513906555.3,286047023.9,Y
1513906575.2,286047011.5,P
1513906595.0,286047014.4,P
1513906595.9,286047014.4,P
1513906615.8,286047017.2,Y
1513906635.6,286047000.6,P
1513906655.4,286047000.6,N
1513906675.2,286047003.6,N
1513906695.1,286047005.5,N
1513906696.0,286047005.5,N
1513906715.8,286047006.5,N
1513906735.6,286047009.5,N
1513906755.5,286047009.9,N
1513906775.3,286047010.4,N
1513906795.2,286047013.2,Y
1513906815.9,286047008.6,P
1513906835.7,286047010.1,P
1513906855.5,286047012.1,P
1513906875.4,286047009.9,Y
1513906895.2,286047003.6,P
1513906915.0,286047004.4,N
1513906916.0,286047004.4,N
1513906935.8,286047008.7,Y
1513906955.6,286046998.2,P
1513906975.5,286046996.2,N
1513906995.3,286046990.2,N
1513907015.1,286046991.0,N
1513907035.8,286046986.4,N
1513907055.7,286046978.3,Y
1513907075.5,286046980.7,P
1513907095.3,286046983.5,N
1513907115.2,286046982.6,N
1513907135.0,286046983.4,Y
1513907135.9,286046983.4,P
1513907155.8,286046994.2,P
1513907175.6,286046990.2,N
1513907195.4,286046990.4,N
1513907215.3,286046988.2,Y
1513907235.1,286046995.3,P
1513907236.0,286046995.3,N
1513907255.8,286046996.6,N
1513907275.6,286046999.3,N
1513907295.5,286046995.4,N
1513907315.3,286046993.3,N
1513907335.1,286046988.9,Y
1513907355.9,286046992.0,P
1513907375.7,286046994.5,P
1513907395.5,286046993.9,P
1513907415.4,286046992.4,Y
1513907435.2,286047000.7,P
1513907455.0,286046997.3,N
1513907455.9,286046997.3,N
1513907475.8,286046993.9,N
1513907495.6,286046992.2,Y
1513907515.4,286046997.3,P
1513907535.3,286046995.4,P
1513907555.1,286046995.1,P
1513907575.8,286046992.1,Y
1513907595.7,286046997.3,P
1513907615.5,286046999.6,N
1513907635.3,286046994.9,P
1513907655.2,286046995.1,N
1513907675.9,286046995.0,N
1513907695.7,286047000.2,N
1513907715.6,286047001.1,N
1513907735.4,286046998.8,N
1513907755.2,286047000.4,N
1513907775.1,286046998.3,N
1513907776.0,286046998.3,N
1513907795.8,286046995.2,N
1513907815.6,286046990.2,Y
1513907835.5,286046995.7,P
1513907855.3,286047000.8,N
1513907875.1,286046996.6,N
1513907895.9,286046998.5,N
1513907915.7,286046996.6,N
1513907935.5,286046993.6,Y
1513907955.4,286046997.5,P
1513907975.2,286046995.3,P
1513907995.0,286046992.5,P
1513907995.9,286046992.5,Y
